Regional Weather Roundup
Issued by NWS

Home | Current Version | Previous Version | Text Only | Print | Product List | Glossary Off
Versions: 1 2 3 4 5 6 7 8 9 10 11 12 13 14 15 16 17 18 19 20 21 22 23 24 25 26 27 28 29 30 31 32 33 34 35 36 37 38 39 40 41 42 43 44 45 46 47 48 49 50

000
ASUS45 KBOU 281510
RWRCO

WEATHER ROUNDUP FOR COLORADO
NATIONAL WEATHER SERVICE PUEBLO CO
900 AM MDT TUE JUL 28 2015

NOTE: "FAIR" INDICATES FEW OR NO CLOUDS BELOW 12000 FEET WITH NO
SIGNIFICANT WEATHER AND/OR OBSTRUCTIONS TO VISIBILITY.

COZ001>005-013-030-031-281600-
...NORTHWEST COLORADO...

CITY           SKY/WX    TMP DP  RH WIND       PRES   REMARKS
CRAIG          SUNNY     58  36  43 CALM      30.31R
HAYDEN         SUNNY     55  32  41 CALM      30.32R
MEEKER         SUNNY     58  37  45 CALM      30.30R
MOUNT WERNER   NOT AVBL
STEAMBOAT SPGS FAIR      54  38  55 CALM      30.32S
WALDEN         FAIR      54  32  43 S8        30.34S
$$

COZ006>008-011-281600-
...WEST CENTRAL VALLEYS...

CITY           SKY/WX    TMP DP  RH WIND       PRES   REMARKS
GRAND JUNCTION SUNNY     71  35  26 CALM      30.18R
MONTROSE       SUNNY     68  34  28 CALM      30.25R
EAGLE          SUNNY     57  36  44 CALM      30.32F
RIFLE          SUNNY     64  37  36 N3        30.24R
DELTA          NOT AVBL
NUCLA          FAIR      64  30  27 CALM      30.26S
$$

COZ017>023-064>068-281600-
...SOUTHWEST COLORADO...

CITY           SKY/WX    TMP DP  RH WIND       PRES   REMARKS
DURANGO        SUNNY     65  37  35 NE3       30.25R
CORTEZ         SUNNY     65  38  36 CALM      30.21R
PAGOSA SPRINGS FAIR      65  39  38 CALM      30.33R
TELLURIDE      SUNNY     59  35  40 CALM      30.44S
WOLF CREEK PAS NOT AVBL
$$

COZ009-010-012-014-032>034-037-058>063-281600-
...CENTRAL COLORADO...

CITY           SKY/WX    TMP DP  RH WIND       PRES   REMARKS
ASPEN          SUNNY     59  36  42 CALM      30.33F
BUENA VISTA    FAIR      62  28  28 E3        30.32S
COPPER MTN     SUNNY     54  18  24 SW10G20   30.60R
BERTHOUD PASS  FAIR      43  34  70 W21G33    30.60S
COTTONWOOD PAS SUNNY     64  21  19 W3        30.45R
GUNNISON       SUNNY     54  34  47 CALM      30.39S
KREMMLING      SUNNY     55  32  41 CALM      30.36F
LEADVILLE      SUNNY     59  27  29 N6        30.44R
MONARCH PASS   SUNNY     48  25  40 W17G23    30.71R
SALIDA         FAIR      65  33  29 CALM      30.36F
NIWOT RIDGE    NOT AVBL
SUNLIGHT       SUNNY     54  28  37 CALM      30.55R
WILKERSON PASS SUNNY     54  23  30 SW8       30.57R
$$

COZ069>075-281600-
...SAN LUIS VALLEY/SANGRE DE CRISTO MOUNTAINS...

CITY           SKY/WX    TMP DP  RH WIND       PRES   REMARKS
ALAMOSA        SUNNY     64  41  42 CALM      30.31S
LA VETA PASS   SUNNY     59  37  44 MISG      30.50S
SAGUACHE       SUNNY     64  36  34 NW9       30.34S
$$

COZ035-036-038>040-281600-
...NORTHERN COLORADO FRONT RANGE...

CITY           SKY/WX    TMP DP  RH WIND       PRES   REMARKS
DENVER INTL AP MOSUNNY   68  32  26 SE13      30.15R
DMNS CITY PARK NOT AVBL
AURORA         MOSUNNY   66  34  30 SE12      30.18R
FRONT RANGE AP MOSUNNY   64  32  29 E8        30.18R
ERIE MUNI ARPT FAIR      70  32  24 S17       30.13S
BOULDER MUN AP FAIR      70  37  30 SE10G17   30.12R
CENTENNIAL     MOSUNNY   66  33  29 SE12      30.18R
BROOMFIELD     MOSUNNY   66  37  34 S17       30.17R
LOVELAND       SUNNY     68  39  34 S15       30.13S
LONGMONT       FAIR      73  37  26 SE10G17   30.13S
$$

COZ041-046-047-076>085-087-088-281600-
...PIKES PEAK/PALMER DIVIDE AND SOUTHERN FOOTHILLS...

CITY           SKY/WX    TMP DP  RH WIND       PRES   REMARKS
COLO. SPRINGS  MOSUNNY   70  38  31 W3        30.21R
A. F. ACADEMY  SUNNY     66  36  33 CALM      30.22S
ELLICOTT       FAIR     N/A N/A N/A NE8       30.19R
FALCON         FAIR      64  34  32 NE8       30.26R
FORT CARSON    MOSUNNY   69  42  38 SE6       30.19R
LIMON          SUNNY     67  36  31 N18G28    30.17R
MONUMENT HILL  SUNNY     61  34  36 E8        30.25F
TRINIDAD       SUNNY     74  35  24 NE9       30.22R
$$

COZ042>045-048>051-090-091-281600-
...NORTHEAST COLORADO...

CITY           SKY/WX    TMP DP  RH WIND       PRES   REMARKS
GREELEY ARPT   SUNNY     68  39  34 W8        30.13R
AKRON            N/A    N/A N/A N/A MISG      30.12R
BURLINGTON     SUNNY     70  40  33 N22G32    30.09R
WRAY           FAIR      74  41  30 NW16G22   30.08R
STERLING       NOT AVBL
HOLYOKE        FAIR      73  39  29 N20G30    30.07R
FORT MORGAN    FAIR      71  34  25 N15       30.13S
$$

COZ086-089-092>099-281600-
...SOUTHEAST COLORADO...

CITY           SKY/WX    TMP DP  RH WIND       PRES   REMARKS
PUEBLO         SUNNY     76  36  23 W6        30.14R
LA JUNTA       SUNNY     77  33  20 NE12      30.10R
LAMAR          MOSUNNY   78  44  29 NE16G22   30.04R
SPRINGFIELD      N/A     75  44  33 N20       30.07S
$$



USA.gov is the U.S. government's official web portal to all federal, state and local government web resources and services.